Home > Weather > Marseille > Past weeks

Flag for France Past Weather in Marseille, Provence-Alpes-Côte d'Azur, France — Yesterday and Last 2 Weeks

Now
66 °F

Sunny.


Feels Like: 66 °F
Forecast: 60 / 78 °F
Wind: 7 mph from Northwest

Location: Marseille / Marignane

Current Time: May 26, 2016 at 10:33:46 PM

Latest Report: May 26, 2016 at 10:00 PM


Visibility: 10 mi

Pressure: 29.92 "Hg

Humidity: 78%

Dew Point: 59 °F

Location of MarseilleLocation

Past Weather in Marseille — Graph

°F

Marseille Temperature Yesterday

Maximum temperature yesterday: 75 °F (at 3:30 PM)
Minimum temperature yesterday: 55 °F (at 2:00 AM)
Average temperature yesterday: 64 °F

High & Low Weather Summary for the Past Weeks

 TemperatureHumidityPressure
High79 °F (May 26, 2:00 PM)94% (May 11, 11:47 PM)30.09 "Hg (May 11, 11:47 PM)
Low52 °F (May 16, 5:00 AM)23% (May 15, 5:00 PM)29.59 "Hg (May 12, 3:30 PM)
Average64 °F59%29.92 "Hg
* Reported May 11 9:00 PM — May 26 9:30 PM, Marseille, Weather by CustomWeather, © 2016

Note: Actual official high and low records may vary slightly from our data, if they occured in-between our weather recording intervals... More about our weather records

Advertising

Marseille Weather History for the Previous 24 Hours

Scroll right to see more
 ConditionsComfort  
Time TempWeatherWind HumidityBarometerVisibility
9:30 PM
Thu, May 26
66 °FSunny.9 mph78%29.92 "Hg10 mi
9:00 PM68 °FSunny.10 mph73%29.92 "Hg10 mi
8:30 PM70 °FSunny.6 mph57%29.92 "Hg10 mi
8:00 PM72 °FSunny.5 mph53%29.92 "Hg10 mi
7:30 PM72 °FSunny.7 mph57%29.92 "Hg10 mi
7:00 PM73 °FSunny.7 mph50%29.92 "Hg10 mi
6:30 PM75 °FPassing clouds.8 mph50%29.92 "HgN/A
6:00 PM75 °FSunny.9 mph44%29.92 "Hg10 mi
5:00 PM77 °FSunny.10 mph42%29.95 "Hg10 mi
4:30 PM75 °FSunny.13 mph47%29.95 "Hg10 mi
4:00 PM75 °FSunny.12 mph50%29.95 "Hg10 mi
3:30 PM75 °FSunny.13 mph54%29.95 "Hg10 mi
3:00 PM77 °FSunny.13 mph47%29.95 "Hg10 mi
2:30 PM77 °FPassing clouds.14 mph44%29.95 "HgN/A
2:00 PM79 °FSunny.10 mph39%29.95 "Hg10 mi
1:30 PM77 °FSunny.9 mph42%29.95 "Hg10 mi
1:00 PM75 °FPassing clouds.8 mph44%29.95 "HgN/A
12:43 PM77 °FPassing clouds.8 mph42%29.95 "HgN/A
12:00 PM75 °FSunny.10 mph44%29.95 "Hg10 mi
11:30 AM73 °FSunny.10 mph50%29.95 "Hg10 mi
11:15 AM72 °FSunny.8 mph50%29.95 "Hg10 mi
10:30 AM72 °FSunny.3 mph47%29.95 "Hg10 mi
10:00 AM68 °FSunny.3 mph56%29.98 "Hg10 mi
9:30 AM66 °FSunny.5 mph60%29.98 "Hg10 mi
8:30 AM63 °FSunny.No wind68%29.98 "Hg10 mi
8:00 AM61 °FSunny.1 mph72%29.98 "Hg10 mi
7:30 AM61 °FSunny.2 mph72%29.98 "Hg10 mi
7:00 AM61 °FClear.3 mph72%29.98 "Hg10 mi
6:30 AM59 °FClear.2 mph72%29.95 "Hg10 mi
6:00 AM57 °FClear.3 mph77%29.95 "Hg10 mi
5:30 AM59 °FClear.3 mph72%29.95 "Hg10 mi
5:00 AM57 °FClear.6 mph77%29.95 "Hg10 mi
4:30 AM57 °FClear.3 mph82%29.95 "Hg10 mi
4:00 AM57 °FClear.5 mph82%29.95 "Hg10 mi
3:30 AM59 °FClear.No wind72%29.95 "Hg10 mi
3:00 AM57 °FClear.3 mph77%29.95 "Hg10 mi
2:30 AM57 °FClear.3 mph77%29.95 "Hg10 mi
2:00 AM59 °FClear.3 mph77%29.98 "Hg10 mi
1:30 AM59 °FClear.2 mph77%29.98 "Hg10 mi
1:00 AM57 °FClear.2 mph82%29.98 "Hg10 mi
12:30 AM59 °FClear.1 mph77%29.98 "Hg10 mi
12:00 AM61 °FClear.1 mph72%29.98 "Hg10 mi
11:30 PM
Wed, May 25
63 °FClear.No wind73%29.98 "Hg10 mi
11:00 PM63 °FClear.1 mph73%29.98 "Hg10 mi
10:30 PM63 °FClear.2 mph68%29.98 "Hg10 mi
10:00 PM63 °FSunny.6 mph68%29.98 "Hg10 mi
Weather by CustomWeather, © 2016

See weather overviewHow to use our weather pages